Location: Baia Mare
(47.6567°N, 23.5850°E)
Time: 13:36:36
(UTC+03:00)

ISS - Pass Details

Date: 01 June 2018
Orbit: 402 x 406 km, 51.6° (Epoch: 21 June)

Event Time Altitude Azimuth Distance (km) Brightness Sun altitude
Rises 00:12:13 0° 292° (WNW) 2,322 0.6 -18.5°
Reaches altitude 10° 00:14:22 10° 285° (WNW) 1,459 -0.6 -18.6°
Enters shadow 00:16:55 37° 243° (WSW) 640 -3.0 -18.8°
